TimeCST,TemperatureF,Dew PointF,Humidity,Sea Level PressureIn,VisibilityMPH,Wind Direction,Wind SpeedMPH,Gust SpeedMPH,PrecipitationIn,Events,Conditions,WindDirDegrees,DateUTC
12:15 AM,15.6,11.1,82,30.05,10.0,South,4.6,-,N/A,,Clear,190,2013-01-16 06:15:00
12:35 AM,16.7,11.3,79,30.04,10.0,South,4.6,-,N/A,,Clear,190,2013-01-16 06:35:00
12:55 AM,16.2,11.1,81,30.03,10.0,SSW,5.8,-,N/A,,Clear,200,2013-01-16 06:55:00
1:35 AM,15.4,10.4,80,30.01,10.0,SSW,5.8,-,N/A,,Clear,200,2013-01-16 07:35:00
1:55 AM,16.0,10.4,79,30.00,10.0,SSW,5.8,-,N/A,,Clear,200,2013-01-16 07:55:00
2:15 AM,15.4,10.0,79,30.00,10.0,South,4.6,-,N/A,,Clear,190,2013-01-16 08:15:00
2:35 AM,15.4,10.2,80,29.99,10.0,South,5.8,-,N/A,,Clear,190,2013-01-16 08:35:00
2:55 AM,16.3,10.2,77,29.98,10.0,SSW,6.9,-,N/A,,Clear,200,2013-01-16 08:55:00
3:15 AM,16.3,9.9,76,29.97,10.0,SSW,6.9,-,N/A,,Clear,200,2013-01-16 09:15:00
3:35 AM,16.7,9.5,73,29.96,10.0,SSW,8.1,-,N/A,,Clear,200,2013-01-16 09:35:00
3:55 AM,17.4,9.5,71,29.94,10.0,South,8.1,-,N/A,,Clear,190,2013-01-16 09:55:00
4:15 AM,18.0,9.3,69,29.93,10.0,SSW,11.5,16.1,N/A,,Clear,200,2013-01-16 10:15:00
4:35 AM,18.0,9.1,68,29.91,10.0,SSW,12.7,17.3,N/A,,Clear,200,2013-01-16 10:35:00
4:55 AM,18.1,8.6,66,29.91,10.0,SSW,15.0,-,N/A,,Clear,200,2013-01-16 10:55:00
5:15 AM,17.6,8.6,68,29.91,10.0,SSW,12.7,-,N/A,,Clear,210,2013-01-16 11:15:00
6:35 AM,18.3,9.3,68,29.85,10.0,SSW,12.7,-,N/A,,Clear,200,2013-01-16 12:35:00
6:55 AM,18.5,9.1,67,29.85,10.0,SSW,10.4,20.7,N/A,,Clear,200,2013-01-16 12:55:00
7:15 AM,18.7,9.3,67,29.85,10.0,SSW,13.8,18.4,N/A,,Clear,210,2013-01-16 13:15:00
7:35 AM,19.4,10.0,67,29.84,10.0,SSW,13.8,-,N/A,,Clear,200,2013-01-16 13:35:00
7:55 AM,21.0,10.9,65,29.84,10.0,SSW,15.0,-,N/A,,Mostly Cloudy,210,2013-01-16 13:55:00
8:15 AM,21.2,11.3,66,29.84,10.0,SSW,15.0,20.7,N/A,,Overcast,210,2013-01-16 14:15:00
8:35 AM,22.1,12.6,67,29.83,10.0,SSW,16.1,23.0,N/A,,Overcast,210,2013-01-16 14:35:00
8:55 AM,22.8,13.1,66,29.82,10.0,SSW,12.7,-,N/A,,Overcast,210,2013-01-16 14:55:00
9:15 AM,23.7,14.0,66,29.81,10.0,SW,15.0,25.3,N/A,,Overcast,220,2013-01-16 15:15:00
9:55 AM,24.8,15.4,68,29.78,10.0,SSW,18.4,25.3,N/A,,Overcast,210,2013-01-16 15:55:00
10:15 AM,25.7,16.3,68,29.78,10.0,SW,17.3,25.3,N/A,,Overcast,220,2013-01-16 16:15:00
10:35 AM,26.6,16.3,65,29.76,10.0,SW,18.4,23.0,N/A,,Overcast,220,2013-01-16 16:35:00
10:55 AM,27.5,16.2,62,29.76,10.0,SW,13.8,24.2,N/A,,Overcast,220,2013-01-16 16:55:00
11:15 AM,27.5,15.8,61,29.76,10.0,SW,19.6,26.5,N/A,,Overcast,230,2013-01-16 17:15:00
11:35 AM,28.4,17.4,63,29.75,10.0,SW,11.5,18.4,N/A,,Overcast,230,2013-01-16 17:35:00
11:55 AM,28.4,18.3,66,29.75,10.0,SW,13.8,18.4,N/A,,Overcast,230,2013-01-16 17:55:00
12:15 PM,30.0,19.4,65,29.74,10.0,SW,11.5,17.3,N/A,,Overcast,230,2013-01-16 18:15:00
12:35 PM,30.7,20.3,65,29.75,10.0,WSW,12.7,18.4,N/A,,Overcast,250,2013-01-16 18:35:00
12:55 PM,30.2,21.0,69,29.75,10.0,WSW,12.7,19.6,N/A,,Overcast,240,2013-01-16 18:55:00
1:15 PM,30.6,21.4,69,29.74,10.0,WSW,12.7,17.3,N/A,,Overcast,240,2013-01-16 19:15:00
1:55 PM,30.2,23.9,77,29.75,10.0,WSW,10.4,-,N/A,,Overcast,240,2013-01-16 19:55:00
2:55 PM,31.1,24.6,77,29.77,10.0,WSW,9.2,-,N/A,,Overcast,250,2013-01-16 20:55:00
3:15 PM,31.6,25.5,78,29.78,10.0,WSW,9.2,-,N/A,,Overcast,240,2013-01-16 21:15:00
4:15 PM,31.6,26.1,80,29.83,10.0,West,12.7,-,N/A,,Overcast,260,2013-01-16 22:15:00
4:35 PM,31.8,26.4,80,29.85,10.0,West,10.4,-,N/A,,Overcast,260,2013-01-16 22:35:00
4:55 PM,31.8,26.6,81,29.85,10.0,WSW,8.1,-,N/A,,Overcast,250,2013-01-16 22:55:00
5:15 PM,31.8,26.6,81,29.86,10.0,West,6.9,-,N/A,,Overcast,260,2013-01-16 23:15:00
5:35 PM,31.8,26.6,81,29.87,10.0,WSW,5.8,-,N/A,,Overcast,240,2013-01-16 23:35:00
5:55 PM,31.8,27.0,82,29.88,10.0,WSW,5.8,-,N/A,,Overcast,240,2013-01-16 23:55:00
6:15 PM,31.6,27.0,83,29.89,10.0,WSW,4.6,-,N/A,,Overcast,250,2013-01-17 00:15:00
7:15 PM,31.8,27.3,83,29.91,10.0,WSW,5.8,-,N/A,,Overcast,240,2013-01-17 01:15:00
7:35 PM,31.8,27.1,83,29.93,10.0,WSW,4.6,-,N/A,,Overcast,240,2013-01-17 01:35:00
7:55 PM,31.8,27.3,83,29.93,10.0,WSW,4.6,-,N/A,,Overcast,240,2013-01-17 01:55:00
8:55 PM,31.8,27.9,85,29.96,10.0,WSW,3.5,-,N/A,,Overcast,250,2013-01-17 02:55:00
9:15 PM,31.6,27.9,86,29.97,10.0,Calm,Calm,-,N/A,,Overcast,0,2013-01-17 03:15:00
9:35 PM,32.0,28.0,85,29.98,10.0,Calm,Calm,-,N/A,,Overcast,0,2013-01-17 03:35:00
9:55 PM,32.0,28.4,87,30.00,10.0,WNW,6.9,-,N/A,,Overcast,300,2013-01-17 03:55:00
10:15 PM,32.4,27.7,83,30.00,10.0,NNW,12.7,-,N/A,,Overcast,330,2013-01-17 04:15:00
10:35 PM,31.8,25.3,77,30.01,10.0,NNW,16.1,21.9,N/A,,Mostly Cloudy,340,2013-01-17 04:35:00
10:55 PM,29.8,15.8,56,30.03,10.0,NNW,11.5,-,N/A,,Scattered Clouds,330,2013-01-17 04:55:00
11:35 PM,27.5,16.7,64,30.03,10.0,NNW,9.2,-,N/A,,Clear,340,2013-01-17 05:35:00
11:55 PM,26.8,16.9,66,30.04,10.0,NNW,5.8,-,N/A,,Clear,340,2013-01-17 05:55:00